Tel Aviv, Israel

6:09 PM IDT on August 16, 2017 (GMT +0300)
Ben Gurion

Weather History for LLBG - January, 2012

Change the Weather History Date:

Sunday, January 1, 2012

  Actual Average Record
Temperature  
Mean Temperature 57 °F -  
Max Temperature 64 °F 61 °F 77 °F (2000)
Min Temperature 50 °F 47 °F 43 °F (2014)
Degree Days  
Heating Degree Days 8    
Growing Degree Days 7 (Base 50)    
Moisture  
Dew Point 43 °F    
Average Humidity 59    
Maximum Humidity 88    
Minimum Humidity 35    
Precipitation  
Precipitation 0.63 in - - ()
Sea Level Pressure  
Sea Level Pressure 30.03 in    
Wind  
Wind Speed 9 mph ()    
Max Wind Speed 22 mph    
Max Gust Speed 31 mph    
Visibility 5.6 miles    
Events Rain    
Averages and records for this station are not official NWS values.
T = Trace of Precipitation, MM = Missing Value Source: Averaged Metar Reports

Daily Weather History Graph

Daily Weather History Graph

Search for Another Location

Airport or City:

Trip Planner

Search our weather history database for the weather conditions in past years. The results will help you decide how hot, cold, wet, or windy it might be!

Date:

Astronomy

Jan. 01, 2012 Rise Set
Actual Time 6:40 AM IST 4:46 PM IST
Civil Twilight 6:13 AM IST 5:13 PM IST
Nautical Twilight 5:43 AM IST 5:44 PM IST
Astronomical Twilight 5:13 AM IST 6:13 PM IST
Moon 11:12 AM IST (1/1) No Moon Set
Length of Visible Light 10h 59m
Length of Day
10h 05m
First Quarter, 51% of the Moon is Illuminated
Jan 1
First Quarter
Jan 9
Full
Jan 16
Last Quarter
Jan 23
New
Jan 31
First Quarter

Hourly Weather History & Observations

Time (IST) Temp. Dew Point Humidity Pressure Visibility Wind Dir Wind Speed Gust Speed Precip Events Conditions
12:50 AM 51.8 °F 42.8 °F 71% 30.01 in - Calm Calm - N/A   Clear
1:50 AM 51.8 °F 42.8 °F 71% 30.01 in - SE 5.8 mph - N/A   Clear
2:00 AM 53 °F 42 °F 58% 30.02 in 6 mi SE 5.8 mph - -  
2:50 AM 51.8 °F 41.0 °F 67% 30.01 in - SE 2.3 mph - N/A   Clear
3:50 AM 51.8 °F 39.2 °F 62% 30.01 in - SSE 8.1 mph - N/A   Clear
4:50 AM 53.6 °F 39.2 °F 58% 30.01 in - SSE 9.2 mph - N/A   Clear
5:50 AM 53.6 °F 39.2 °F 58% 30.01 in - South 12.7 mph - N/A   Clear
6:50 AM 53.6 °F 39.2 °F 58% 30.04 in 6.2 mi South 13.8 mph - N/A   Mostly Cloudy
7:50 AM 55.4 °F 39.2 °F 54% 30.04 in 6.2 mi South 12.7 mph - N/A   Scattered Clouds
8:00 AM 55 °F 39 °F 43% 30.05 in 6 mi South 12.7 mph - -   Scattered Clouds
8:50 AM 57.2 °F 39.2 °F 51% 30.06 in - South 15.0 mph - N/A   Clear
9:50 AM 60.8 °F 39.2 °F 45% 30.06 in - South 19.6 mph 31.1 mph N/A   Clear
10:50 AM 60.8 °F 37.4 °F 42% 30.04 in 5.6 mi South 18.4 mph 29.9 mph N/A   Unknown
11:50 AM 62.6 °F 39.2 °F 42% 30.01 in 5.6 mi SSW 17.3 mph 28.8 mph N/A   Scattered Clouds
12:50 PM 62.6 °F 41.0 °F 45% 29.98 in 4.3 mi SSW 20.7 mph - N/A   Scattered Clouds
1:50 PM 62.6 °F 42.8 °F 48% 29.98 in 3.7 mi SSW 19.6 mph 31.1 mph N/A   Scattered Clouds
2:00 PM 63 °F 42 °F 35% 30.00 in 4 mi SSW 19.6 mph - -   Haze
2:50 PM 62.6 °F 42.8 °F 48% 29.98 in 6.2 mi SSW 21.9 mph - N/A   Scattered Clouds
3:50 PM 62.6 °F 42.8 °F 48% 30.01 in 6.2 mi SW 21.9 mph - N/A   Scattered Clouds
4:50 PM 60.8 °F 42.8 °F 52% 30.01 in 6.2 mi SSW 13.8 mph - N/A   Scattered Clouds
5:50 PM 59.0 °F 42.8 °F 55% 30.01 in 6.2 mi South 8.1 mph - N/A   Mostly Cloudy
6:50 PM 59.0 °F 42.8 °F 55% 30.01 in 6.2 mi South 8.1 mph - N/A   Mostly Cloudy
7:50 PM 59.0 °F 44.6 °F 59% 30.04 in 6.2 mi South 11.5 mph - N/A   Mostly Cloudy
8:00 PM 58 °F 44 °F 49% 30.05 in 6 mi South 11.5 mph - -   Mostly Cloudy
8:50 PM 59.0 °F 44.6 °F 59% 30.04 in 6.2 mi South 12.7 mph - N/A   Mostly Cloudy
9:20 PM 55.4 °F 48.2 °F 77% 30.04 in 5.0 mi SW 10.4 mph - N/A Rain Rain
9:50 PM 53.6 °F 50.0 °F 88% 30.04 in 4.3 mi NNE 4.6 mph - N/A Rain Rain
10:50 PM 55.4 °F 50.0 °F 82% 30.06 in 6.2 mi SSE 5.8 mph - N/A   Mostly Cloudy
11:19 PM 53.6 °F 50.0 °F 88% 30.06 in 5.0 mi South 9.2 mph - N/A Rain Rain
11:28 PM 53.6 °F 48.2 °F 82% 30.06 in 5.0 mi South 13.8 mph - N/A Rain Rain
11:50 PM 55.4 °F 51.8 °F 88% 30.06 in 6.2 mi South 12.7 mph - N/A Rain Light Rain